[[{"header":{"parameterUnit":"m.s-1","parameterCategory":2,"la1":30.2991,"la2":30.254,"lo1":-89.0895,"lo2":-89.0444,"dy":0.0017,"dx":0.0017,"nx":28,"ny":28,"refTime":"2025-08-04T09:00:00:Z","depth":"0","parameterNumber":2,"parameterNumberName":"U-component_of_CURRENTS"},"data":[0,0,0,0,0,0,0,0,0,0,0,0,0,0,0,0,0,0,0,0,0,0,0,0,0,0,0,0,0,0,0,0,0,0,0,0,0,0,0,0,0,0,0,0,0,0,0,0,0,0,0,0,0,0,0,0,0,0,0.266,0.2662,0,0.2835,0.2837,0.2839,0.2915,0.2914,0.2913,0.2913,0.3027,0.303,0.3034,0,0,0,0,0,0,0,0,0,0,0,0,0,0.2623,0.2622,0.266,0.2662,0.2664,0.2834,0.2837,0.284,0.2915,0.2914,0.2913,0.2913,0.3026,0.303,0.3034,0,0,0,0,0,0,0,0,0,0,0,0,0,0.2705,0.2622,0.266,0.2719,0.2726,0.2834,0.2837,0.2841,0.2915,0.2914,0.2913,0.2912,0.3024,0.3029,0.3035,0.3088,0,0,0.3051,0.3054,0,0,0,0,0,0,0,0,0.27,0.2707,0.2708,0.2715,0.2723,0.2848,0.2866,0.2919,0.2915,0.2847,0.2913,0.2912,0.296,0.297,0.3012,0.3093,0.3098,0.3052,0.3055,0.3058,0.3059,0,0,0,0,0,0,0,0.2694,0.2701,0.2733,0.271,0.2719,0.2816,0.2825,0.2878,0.2908,0.2853,0.2858,0.2872,0.2964,0.3006,0.3015,0.3099,0.3052,0.3057,0.306,0.3062,0.3278,0.328,0,0,0,0,0,0,0.2654,0.2694,0.2727,0.2738,0.2705,0.2816,0.2826,0.2812,0.2909,0.2923,0.2872,0.2874,0.2998,0.3008,0.3019,0.3166,0.3057,0.3063,0.3066,0.3275,0.3278,0.3281,0,0,0,0,0,0,0.2652,0.2654,0.272,0.2719,0.2734,0.2815,0.2801,0.2816,0.286,0.2924,0.2937,0.2898,0.2997,0.3011,0.3106,0.3167,0.3065,0.307,0.3272,0.3276,0.328,0.3407,0,0,0,0,0,0,0.2649,0.2651,0.2638,0.2715,0.2732,0.2805,0.2802,0.282,0.2867,0.2872,0.2951,0.2961,0.2998,0.3098,0.3111,0.3172,0.3074,0.3269,0.3274,0.3278,0.34,0.3415,0.3428,0,0,0,0,0,0.2647,0.2643,0.2636,0.2641,0.2706,0.2807,0.2827,0.2885,0.2869,0.2915,0.2973,0.2958,0.3135,0.3106,0.3121,0.3184,0.3267,0.3273,0.3278,0.3394,0.3412,0.3428,0,0,0,0,0,0,0.2626,0.2652,0.2646,0.2647,0.2724,0.2818,0.2861,0.2884,0.2967,0.2965,0.3007,0.3025,0.3132,0.3132,0.3098,0.3256,0.3192,0.32,0.3274,0.3292,0.3305,0.3386,0.3079,0,0,0,0,0,0.2607,0.2607,0.2664,0.2672,0.2703,0.2774,0.2819,0.286,0.2936,0.2971,0.3029,0.3086,0.3168,0.3206,0.3274,0.3362,0.3395,0.3404,0.3418,0.343,0.3504,0.3597,0.3628,0.3299,0.3299,0.3299,0,0,0.26,0.2615,0.2615,0.2668,0.2724,0.2831,0.2802,0.2878,0.2979,0.2969,0.3113,0.3143,0.3202,0.3323,0.3365,0.333,0.3533,0.3437,0.3447,0.3517,0.3607,0.3639,0.3668,0.3303,0.3302,0.3302,0,0,0.2652,0.2601,0.2656,0.2722,0.2805,0.2857,0.2875,0.2975,0.3026,0.315,0.3178,0.3272,0.3357,0.3459,0.3505,0.3633,0.3607,0.3599,0.3742,0.383,0.3859,0.3885,0.394,0.397,0.3601,0.3602,0.3602,0,0.2658,0.2722,0.2697,0.28,0.287,0.2873,0.2998,0.3062,0.3187,0.3249,0.3207,0.3409,0.3453,0.3641,0.3699,0.3677,0.369,0.3673,0.3852,0.3879,0.3904,0.3954,0.3986,0.3608,0.3608,0.3607,0.3606,0,0.2805,0.285,0.2893,0.301,0.3075,0.3175,0.3249,0.3318,0.3341,0.3415,0.3567,0.364,0.3764,0.3773,0.3793,0.3986,0.3925,0.386,0.3816,0.3945,0.3988,0.4019,0.3618,0.3616,0.3614,0.3612,0,0,0.2862,0.2976,0.2997,0.3067,0.3194,0.326,0.3402,0.3547,0.3624,0.3723,0.3855,0.4026,0.4025,0.4084,0.4092,0.4186,0.4367,0.4107,0.4108,0.4175,0.4535,0.4406,0.4426,0.4307,0.4314,0.4319,0.4484,0,0.3014,0.3206,0.323,0.3412,0.3521,0.3545,0.3663,0.3769,0.3831,0.3943,0.4028,0.4138,0.4146,0.4174,0.4299,0.4336,0.4458,0.4329,0.4392,0.4396,0.4277,0.4463,0.4247,0.4369,0.4514,0.4519,0.4522,0,0.3208,0.3291,0.3488,0.3591,0.3634,0.3721,0.3858,0.3963,0.4098,0.414,0.4276,0.4299,0.4502,0.4425,0.4665,0.4562,0.4611,0.463,0.4634,0.4513,0.4328,0.4269,0.4419,0.4227,0.4569,0.4566,0.4562,0,0.3312,0.3479,0.3618,0.3673,0.3793,0.3849,0.3903,0.4029,0.4094,0.4249,0.4288,0.4502,0.4555,0.4701,0.4776,0.472,0.4972,0.4876,0.4831,0.4818,0.4659,0.4621,0.4655,0.5094,0.5094,0.5094,0.5093,0,0.35,0.3604,0.365,0.3727,0.3821,0.3891,0.3995,0.4066,0.4174,0.4244,0.4374,0.4456,0.462,0.475,0.4843,0.4944,0.504,0.4943,0.4892,0.4688,0.4653,0.4492,0.4412,0.51,0.5098,0.5097,0.5096,0,0.3616,0.3679,0.3792,0.3867,0.3873,0.3926,0.3978,0.4029,0.4146,0.4235,0.4275,0.4446,0.4604,0.476,0.4957,0.498,0.4947,0.5112,0.4848,0.4765,0.4499,0.4433,0.4402,0.4282,0.5104,0.5102,0.5101,0,0.3712,0.3779,0.3823,0.3814,0.3829,0.3887,0.3892,0.4,0.4034,0.4214,0.4231,0.4417,0.4517,0.477,0.486,0.502,0.4889,0.488,0.4774,0.4535,0.4427,0.4286,0.4177,0.4601,0.4596,0.4591,0.4588,0,0.3802,0.3785,0.3817,0.3792,0.3777,0.3789,0.3803,0.3828,0.3939,0.4025,0.4113,0.4214,0.4439,0.4487,0.4679,0.4752,0.4594,0.4791,0.4634,0.4158,0.3925,0.3761,0.4416,0.4549,0.4553,0.4556,0.4558,0.4559,0.3781,0.3776,0.3744,0.3709,0.369,0.3633,0.359,0.3623,0.366,0.3721,0.3921,0.4015,0.4155,0.4382,0.442,0.4269,0.4333,0.4138,0.4119,0.4029,0.3802,0.4367,0.4368,0.4371,0.4373,0.4376,0.4377,0,0.3709,0.3673,0.364,0.3559,0.3479,0.3511,0.3464,0.3391,0.3358,0.3522,0.3611,0.3716,0.3746,0.3837,0.3771,0.362,0.3507,0.3502,0.326,0.322,0.38,0.366,0.3395,0.3395,0.3395,0.3395,0.3395,0.3396,0.3653,0.3572,0.3535,0.3345,0.3283,0.3111,0.3051,0.2988,0.3047,0.3058,0.3117,0.3276,0.3371,0.3335,0.3135,0.3067,0.2829,0.2698,0.273,0.3103,0.3159,0.3213,0.3062,0.2676,0.2675,0.2006,0.2001,0.1997]},{"header":{"parameterUnit":"m.s-1","parameterCategory":2,"la1":30.2991,"la2":30.254,"lo1":-89.0895,"lo2":-89.0444,"dy":0.0017,"dx":0.0017,"nx":28,"ny":28,"refTime":"2025-08-04T09:00:00:Z","depth":"0","parameterNumber":3,"parameterNumberName":"V-component_of_CURRENTS"},"data":[0,0,0,0,0,0,0,0,0,0,0,0,0,0,0,0,0,0,0,0,0,0,0,0,0,0,0,0,0,0,0,0,0,0,0,0,0,0,0,0,0,0,0,0,0,0,0,0,0,0,0,0,0,0,0,0,0,0,0.0044,0.0044,0,0.0009,0.0009,0.0008,-0.0041,-0.0041,-0.0042,-0.0043,-0.0128,-0.013,-0.0131,0,0,0,0,0,0,0,0,0,0,0,0,0,0.0095,0.0094,0.0044,0.0044,0.0044,0.0009,0.0009,0.0008,-0.004,-0.0041,-0.0042,-0.0043,-0.0128,-0.013,-0.0132,0,0,0,0,0,0,0,0,0,0,0,0,0,0.0067,0.0094,0.0044,0.0015,0.0012,0.0009,0.0009,0.0008,-0.004,-0.0042,-0.0043,-0.0044,-0.0127,-0.013,-0.0132,-0.0121,0,0,-0.0139,-0.014,0,0,0,0,0,0,0,0,0.0069,0.0066,0.002,0.0017,0.0014,-0.0012,-0.0005,-0.0038,-0.004,-0.0021,-0.0043,-0.0044,-0.0093,-0.0098,-0.0102,-0.0126,-0.0129,-0.0139,-0.014,-0.0141,-0.0142,0,0,0,0,0,0,0,0.0071,0.0067,0.003,0.002,0.0016,0.0013,0.0007,-0.0011,-0.0051,-0.0022,-0.0026,-0.0029,-0.0095,-0.01,-0.0104,-0.013,-0.0139,-0.0141,-0.0142,-0.0143,-0.0138,-0.0137,0,0,0,0,0,0,0.0076,0.0069,0.0031,0.0029,0.0039,0.0013,0.0007,-0.0003,-0.005,-0.0057,-0.0028,-0.0031,-0.0095,-0.0102,-0.0108,-0.0041,-0.0141,-0.0143,-0.0145,-0.014,-0.0138,-0.0136,0,0,0,0,0,0,0.0077,0.0072,0.0033,0.0049,0.0043,0.0013,0.0003,-0.0003,-0.001,-0.0053,-0.0062,-0.003,-0.0096,-0.0105,-0.0119,-0.0047,-0.0145,-0.0147,-0.0141,-0.0139,-0.0137,0.0056,0,0,0,0,0,0,0.0078,0.0073,0.007,0.0049,0.0043,0.0044,0.0004,-0.0003,-0.001,-0.0015,-0.0057,-0.0067,-0.0098,-0.0115,-0.0121,-0.0052,-0.0148,-0.0143,-0.014,-0.0138,0.0048,0.0065,0.0079,0,0,0,0,0,0.008,0.0087,0.007,0.0066,0.0039,0.0045,0.0043,0.0016,-0.0009,0.0002,-0.0033,-0.0065,-0.0101,-0.0116,-0.0123,-0.0053,-0.0145,-0.0141,-0.0138,0.0041,0.0061,0.0079,0,0,0,0,0,0,0.011,0.0082,0.0063,0.006,0.0057,0.0037,0.0043,0.0023,0.0005,-0.0002,-0.0053,-0.0063,-0.0041,-0.0089,-0.0104,-0.0048,-0.0125,-0.0123,0.0013,0.0032,0.0047,0.0147,-0.015,0,0,0,0,0,0.0115,0.011,0.009,0.009,0.009,0.0066,0.0064,0.0052,0.0032,0.0023,-0.0003,-0.003,-0.0031,-0.0036,-0.0053,-0.0029,-0.0037,0.0009,0.0025,0.0039,0.0112,0.0144,0.0172,-0.0125,-0.0125,-0.0125,0,0,0.0127,0.0112,0.0108,0.0097,0.0088,0.0127,0.0062,0.0071,0.0119,0.0017,0.0063,0.0023,-0.0016,0.0023,0.0028,-0.0009,0.0109,0.0043,0.0056,0.0123,0.0151,0.0181,0.0207,-0.0123,-0.0123,-0.0124,0,0,0.0174,0.0136,0.0161,0.0168,0.0167,0.0164,0.0171,0.0162,0.017,0.0196,0.0151,0.0168,0.0131,0.0158,0.0156,0.0246,0.019,0.0208,0.0379,0.0408,0.0435,0.0458,0.0458,0.048,0.0219,0.0219,0.0219,0,0.0193,0.0227,0.0173,0.0215,0.0248,0.0191,0.0261,0.0265,0.0259,0.0303,0.0232,0.0277,0.0225,0.0336,0.036,0.0297,0.0276,0.0314,0.0436,0.0459,0.048,0.0474,0.0496,0.0229,0.0228,0.0227,0.0226,0,0.0277,0.0309,0.0329,0.0369,0.0391,0.0438,0.0445,0.0477,0.0468,0.0487,0.0574,0.0523,0.0564,0.0537,0.0474,0.0609,0.0532,0.0453,0.0404,0.0523,0.0506,0.0525,0.0243,0.0239,0.0236,0.0234,0,0,0.0334,0.0381,0.0397,0.0454,0.0487,0.0524,0.061,0.0699,0.0788,0.0782,0.0919,0.0919,0.0898,0.0897,0.0831,0.0857,0.095,0.0725,0.0721,0.0755,0.0995,0.0892,0.0901,0.0877,0.0882,0.0886,0.0915,0,0.0437,0.0553,0.0554,0.0692,0.0764,0.0764,0.0858,0.0924,0.096,0.1063,0.1072,0.1141,0.103,0.1047,0.1075,0.0983,0.1015,0.095,0.0852,0.085,0.077,0.0927,0.0847,0.0864,0.0934,0.0937,0.0939,0,0.0556,0.0617,0.0761,0.0884,0.0917,0.0984,0.1144,0.1219,0.1334,0.1367,0.1461,0.1433,0.1521,0.1367,0.1373,0.1324,0.1205,0.1119,0.1115,0.0987,0.0787,0.0758,0.0896,0.0669,0.0968,0.0966,0.0963,0,0.0663,0.0787,0.091,0.0948,0.1055,0.1136,0.1204,0.1322,0.142,0.1562,0.1638,0.1724,0.1749,0.1681,0.1506,0.1438,0.1468,0.1337,0.1152,0.114,0.1048,0.102,0.0994,0.1364,0.1364,0.1364,0.1364,0,0.0803,0.0903,0.0963,0.1028,0.1189,0.1233,0.1415,0.1491,0.1636,0.1783,0.1795,0.1914,0.182,0.1801,0.1631,0.148,0.157,0.1258,0.1178,0.1102,0.108,0.0852,0.0742,0.1365,0.1365,0.1364,0.1364,0,0.0905,0.0949,0.1079,0.1191,0.1236,0.1343,0.1507,0.1636,0.1749,0.1943,0.1994,0.2079,0.2057,0.1935,0.1811,0.1622,0.1354,0.1385,0.1292,0.1203,0.0797,0.0701,0.067,0.0596,0.1223,0.1221,0.1219,0,0.097,0.1043,0.1164,0.1234,0.128,0.1431,0.1541,0.1682,0.1821,0.2038,0.2144,0.2191,0.2246,0.2056,0.1761,0.1516,0.1306,0.1222,0.1097,0.0842,0.0676,0.0619,0.0556,0.103,0.1027,0.1025,0.1023,0,0.1063,0.1086,0.1166,0.1304,0.1416,0.157,0.1735,0.187,0.2051,0.2206,0.2395,0.2457,0.2281,0.2033,0.1674,0.1455,0.1064,0.116,0.0946,0.061,0.0506,0.037,0.0912,0.1002,0.1004,0.1005,0.1006,0.1007,0.1092,0.1152,0.1235,0.1374,0.1509,0.1694,0.1835,0.2018,0.2242,0.2491,0.255,0.2673,0.2246,0.1769,0.1466,0.0808,0.0898,0.0577,0.0507,0.0492,0.0369,0.086,0.0814,0.0815,0.0816,0.0817,0.0817,0,0.1114,0.1183,0.1306,0.1464,0.1614,0.1689,0.195,0.21,0.2347,0.2578,0.2737,0.2584,0.2048,0.1501,0.0631,0.0224,0.0109,0.0005,-0.0091,-0.0104,0.0364,0.0297,0.0078,0.0078,0.0078,0.0078,0.0079,0.0079,0.1122,0.1215,0.1284,0.1511,0.1637,0.1844,0.1997,0.2227,0.244,0.2659,0.2738,0.2817,0.2264,0.0805,-0.0165,-0.0357,-0.0588,-0.0645,-0.0702,-0.0436,-0.0389,-0.0344,-0.0433,-0.0801,-0.0802,-0.1154,-0.1158,-0.1161]}],[{"header":{"parameterUnit":"m.s-1","parameterCategory":2,"la1":30.2991,"la2":30.254,"lo1":-89.0895,"lo2":-89.0444,"dy":0.0017,"dx":0.0017,"nx":28,"ny":28,"refTime":"2025-08-04T09:00:00:Z","depth":"2","parameterNumber":2,"parameterNumberName":"U-component_of_CURRENTS"},"data":[0,0,0,0,0,0,0,0,0,0,0,0,0,0,0,0,0,0,0,0,0,0,0,0,0,0,0,0,0,0,0,0,0,0,0,0,0,0,0,0,0,0,0,0,0,0,0,0,0,0,0,0,0,0,0,0,0,0,0.2386,0.2387,0,0.248,0.2481,0.2482,0.2537,0.2538,0.2538,0.2538,0.2601,0.2602,0.2604,0,0,0,0,0,0,0,0,0,0,0,0,0,0.2331,0.2332,0.2386,0.2387,0.2388,0.248,0.2481,0.2483,0.2537,0.2538,0.2538,0.2538,0.26,0.2602,0.2604,0,0,0,0,0,0,0,0,0,0,0,0,0,0.2385,0.2332,0.2386,0.2425,0.243,0.2479,0.2481,0.2483,0.2537,0.2538,0.2538,0.2538,0.26,0.2602,0.2604,0.2618,0,0,0.2612,0.2613,0,0,0,0,0,0,0,0,0.2381,0.2387,0.2419,0.2423,0.2427,0.2495,0.2485,0.2526,0.2537,0.2499,0.2538,0.2538,0.2561,0.2567,0.2588,0.2621,0.2624,0.2612,0.2614,0.2615,0.2615,0,0,0,0,0,0,0,0.2378,0.2384,0.2425,0.2419,0.2425,0.2464,0.2471,0.2494,0.2529,0.2502,0.2506,0.2513,0.2564,0.2585,0.2589,0.2624,0.2612,0.2614,0.2616,0.2617,0.2791,0.2794,0,0,0,0,0,0,0.2358,0.238,0.2422,0.2428,0.2402,0.2464,0.2473,0.2475,0.253,0.2538,0.2513,0.2515,0.2581,0.2586,0.2592,0.2692,0.2615,0.2617,0.2618,0.2788,0.2791,0.2795,0,0,0,0,0,0,0.2356,0.2361,0.2419,0.2405,0.2415,0.2464,0.2467,0.2477,0.2507,0.2538,0.2546,0.2533,0.2581,0.2588,0.2649,0.2691,0.2618,0.262,0.2784,0.2789,0.2793,0.2839,0,0,0,0,0,0,0.2354,0.2359,0.2363,0.2403,0.2414,0.2463,0.2467,0.2479,0.2509,0.2514,0.2558,0.2564,0.2582,0.2645,0.2651,0.2693,0.2622,0.278,0.2786,0.2792,0.2834,0.2845,0.2855,0,0,0,0,0,0.2352,0.2357,0.2362,0.2368,0.2415,0.2463,0.2474,0.2511,0.251,0.2535,0.2578,0.2563,0.2687,0.265,0.2656,0.2699,0.2777,0.2784,0.2791,0.2829,0.2843,0.2854,0,0,0,0,0,0,0.2338,0.2364,0.2371,0.2384,0.2425,0.2472,0.2497,0.2513,0.2565,0.2579,0.2594,0.2604,0.2696,0.2686,0.2644,0.2773,0.2733,0.2742,0.276,0.2773,0.2783,0.2817,0.2624,0,0,0,0,0,0.2333,0.2341,0.2379,0.2392,0.2412,0.2453,0.2477,0.251,0.2556,0.2579,0.261,0.2658,0.2729,0.2738,0.2807,0.2842,0.286,0.2881,0.2891,0.2899,0.2936,0.3013,0.3034,0.2818,0.2818,0.2818,0,0,0.2329,0.2345,0.2349,0.2389,0.2423,0.2476,0.2469,0.2522,0.2575,0.2576,0.2656,0.2711,0.2759,0.2842,0.2875,0.2828,0.2964,0.2909,0.2915,0.2948,0.3023,0.3044,0.3062,0.2823,0.2822,0.2821,0,0,0.2348,0.2343,0.2374,0.2406,0.2464,0.2498,0.2511,0.2574,0.261,0.2688,0.2731,0.2812,0.287,0.2935,0.2967,0.3069,0.3046,0.3075,0.3115,0.3189,0.3207,0.3223,0.3232,0.3249,0.3042,0.3042,0.3042,0,0.2348,0.2388,0.2393,0.244,0.2479,0.2506,0.2571,0.2611,0.269,0.2732,0.2726,0.2907,0.2931,0.3057,0.3096,0.3094,0.3106,0.3052,0.32,0.3217,0.3233,0.3239,0.3257,0.3045,0.3045,0.3044,0.3044,0,0.2404,0.2439,0.246,0.2527,0.2569,0.2626,0.2681,0.273,0.2769,0.2819,0.2963,0.3031,0.3127,0.3149,0.3147,0.3278,0.324,0.3229,0.3159,0.3257,0.3257,0.3275,0.305,0.3048,0.3048,0.3047,0,0,0.2392,0.2487,0.249,0.253,0.2624,0.2652,0.2747,0.284,0.2893,0.2989,0.3081,0.3223,0.3255,0.33,0.3323,0.3375,0.3469,0.3335,0.3337,0.3328,0.3588,0.3426,0.3428,0.3472,0.3476,0.348,0.3527,0,0.2444,0.2529,0.2581,0.2666,0.2715,0.2773,0.2851,0.2932,0.2999,0.3083,0.3186,0.33,0.3308,0.336,0.3424,0.3467,0.3526,0.3455,0.3512,0.3514,0.3345,0.3449,0.3185,0.3195,0.3544,0.3547,0.3549,0,0.249,0.2535,0.2631,0.2726,0.2755,0.2816,0.2923,0.3014,0.3138,0.3198,0.3328,0.3382,0.3507,0.3494,0.3637,0.3582,0.361,0.3636,0.3638,0.3494,0.3387,0.3166,0.3214,0.3579,0.3576,0.3574,0.3572,0,0.2453,0.2565,0.2634,0.2665,0.2784,0.2841,0.2928,0.3052,0.3147,0.3288,0.3376,0.3495,0.3595,0.3659,0.3695,0.367,0.3822,0.378,0.3678,0.3664,0.3459,0.3419,0.3927,0.3927,0.3927,0.3926,0.3926,0,0.248,0.2517,0.2613,0.2638,0.2722,0.2829,0.2944,0.3044,0.3215,0.3334,0.3451,0.3558,0.3653,0.3725,0.3728,0.3741,0.3851,0.3724,0.3691,0.346,0.3422,0.3778,0.376,0.3928,0.3928,0.3927,0.3927,0,0.2438,0.2498,0.2563,0.2674,0.2709,0.2775,0.2962,0.3062,0.3237,0.3401,0.3465,0.3636,0.3713,0.377,0.3852,0.3792,0.3803,0.3795,0.348,0.341,0.3579,0.3564,0.3667,0.3662,0.3658,0.3655,0.3652,0,0.2432,0.2464,0.256,0.2613,0.2671,0.2779,0.2882,0.3056,0.3153,0.3429,0.3495,0.3656,0.3695,0.374,0.367,0.3632,0.3755,0.336,0.3284,0.3609,0.3566,0.3557,0.3547,0.3017,0.3009,0.3003,0.2998,0,0.2427,0.2456,0.2509,0.2598,0.2685,0.2802,0.2934,0.2973,0.3188,0.3299,0.3443,0.3509,0.3586,0.3397,0.3359,0.3301,0.332,0.3225,0.3698,0.3108,0.2996,0.2953,0.2966,0.2941,0.2946,0.2951,0.2954,0.2956,0.2431,0.244,0.2509,0.2577,0.27,0.2805,0.283,0.2901,0.2979,0.3043,0.3195,0.3178,0.3202,0.2973,0.2878,0.2806,0.3025,0.2872,0.2893,0.292,0.2822,0.2707,0.2576,0.258,0.2583,0.2585,0.2588,0,0.2442,0.244,0.2503,0.2573,0.2668,0.278,0.2858,0.2781,0.272,0.2768,0.2773,0.2534,0.2417,0.2478,0.2292,0.226,0.2261,0.2158,0.2152,0.2209,0.226,0.2129,0.17,0.1697,0.1694,0.1692,0,0,0.2446,0.2453,0.2432,0.2494,0.2593,0.2644,0.2659,0.2503,0.2426,0.223,0.2163,0.2248,0.2383,0.1998,0.1951,0.1806,0.1993,0.173,0.2444,0.2495,0.2542,0.2673,0.2535,0,0,0,0,0]},{"header":{"parameterUnit":"m.s-1","parameterCategory":2,"la1":30.2991,"la2":30.254,"lo1":-89.0895,"lo2":-89.0444,"dy":0.0017,"dx":0.0017,"nx":28,"ny":28,"refTime":"2025-08-04T09:00:00:Z","depth":"2","parameterNumber":3,"parameterNumberName":"V-component_of_CURRENTS"},"data":[0,0,0,0,0,0,0,0,0,0,0,0,0,0,0,0,0,0,0,0,0,0,0,0,0,0,0,0,0,0,0,0,0,0,0,0,0,0,0,0,0,0,0,0,0,0,0,0,0,0,0,0,0,0,0,0,0,0,-0.0031,-0.0032,0,-0.0061,-0.0061,-0.0061,-0.0097,-0.0098,-0.0099,-0.0099,-0.0133,-0.0134,-0.0134,0,0,0,0,0,0,0,0,0,0,0,0,0,0.0012,0.0012,-0.0031,-0.0032,-0.0032,-0.0061,-0.0061,-0.0061,-0.0097,-0.0098,-0.0099,-0.0099,-0.0133,-0.0133,-0.0134,0,0,0,0,0,0,0,0,0,0,0,0,0,-0.001,0.0012,-0.0031,-0.0054,-0.0057,-0.0061,-0.0061,-0.0062,-0.0097,-0.0098,-0.0099,-0.01,-0.0133,-0.0133,-0.0134,-0.0117,0,0,-0.0135,-0.0135,0,0,0,0,0,0,0,0,-0.0009,-0.0011,-0.005,-0.0053,-0.0055,-0.0077,-0.0058,-0.0081,-0.0097,-0.0081,-0.0099,-0.01,-0.0115,-0.0117,-0.0119,-0.0119,-0.012,-0.0135,-0.0136,-0.0136,-0.0136,0,0,0,0,0,0,0,-0.0007,-0.001,-0.0042,-0.0051,-0.0054,-0.0057,-0.0061,-0.0063,-0.0091,-0.0082,-0.0085,-0.009,-0.0116,-0.0118,-0.012,-0.0121,-0.0135,-0.0136,-0.0136,-0.0136,-0.0136,-0.0135,0,0,0,0,0,0,-0.0005,-0.0009,-0.0041,-0.0043,-0.0035,-0.0057,-0.0062,-0.0068,-0.0091,-0.0096,-0.0089,-0.0091,-0.0117,-0.0119,-0.0121,-0.0095,-0.0136,-0.0136,-0.0136,-0.0136,-0.0136,-0.0135,0,0,0,0,0,0,-0.0004,-0.0008,-0.004,-0.0027,-0.0032,-0.0057,-0.0064,-0.0069,-0.0069,-0.0096,-0.0101,-0.0085,-0.0118,-0.0121,-0.0118,-0.0097,-0.0136,-0.0137,-0.0136,-0.0136,-0.0135,-0.0048,0,0,0,0,0,0,-0.0003,-0.0007,-0.0008,-0.0027,-0.0032,-0.003,-0.0063,-0.0068,-0.0071,-0.0075,-0.0094,-0.0099,-0.0119,-0.0117,-0.0118,-0.0099,-0.0137,-0.0137,-0.0136,-0.0136,-0.0051,-0.0045,-0.0039,0,0,0,0,0,-0.0001,0.0005,-0.0008,-0.0012,-0.0034,-0.0029,-0.0031,-0.0052,-0.007,-0.0058,-0.0078,-0.0098,-0.0116,-0.0116,-0.0118,-0.0098,-0.0137,-0.0136,-0.0136,-0.0054,-0.0046,-0.0039,0,0,0,0,0,0,0.0026,0.0001,-0.0013,-0.0015,-0.0017,-0.0035,-0.0031,-0.0044,-0.005,-0.0055,-0.0085,-0.009,-0.0083,-0.0105,-0.0105,-0.0101,-0.0133,-0.0133,-0.0071,-0.0063,-0.0057,-0.0046,-0.0138,0,0,0,0,0,0.0031,0.0026,0.001,0.001,0.0009,-0.0009,-0.001,-0.002,-0.0031,-0.0035,-0.005,-0.0071,-0.0081,-0.0083,-0.0096,-0.0083,-0.0118,-0.0077,-0.0071,-0.0065,-0.0059,-0.0093,-0.0089,-0.0133,-0.0133,-0.0133,0,0,0.0039,0.0027,0.0023,0.0016,0.0008,0.0028,-0.0011,-0.0005,0.0011,-0.0036,-0.0021,-0.0046,-0.0074,-0.0065,-0.0064,-0.0079,-0.0073,-0.0064,-0.0059,-0.0056,-0.0092,-0.0088,-0.0084,-0.0133,-0.0133,-0.0133,0,0,0.0068,0.0046,0.0058,0.0064,0.0061,0.0055,0.0061,0.0052,0.0045,0.0059,0.0022,0.0012,0.0002,-0.0015,-0.0025,0.0007,-0.0041,-0.0004,0.0044,0.0012,0.0016,0.0018,-0.0023,-0.0025,0.0002,0.0002,0.0002,0,0.008,0.0093,0.0066,0.0091,0.0103,0.0074,0.0108,0.0102,0.0096,0.0093,0.0075,0.0049,0.0028,0.0033,0.0039,0.0025,-0.001,0.0024,0.0022,0.0024,0.0025,-0.0018,-0.0021,0.0006,0.0006,0.0006,0.0005,0,0.0127,0.0141,0.0152,0.017,0.0183,0.0206,0.02,0.0204,0.019,0.0178,0.0175,0.0143,0.012,0.0115,0.009,0.009,0.0056,0.0034,0.0009,0.0035,-0.0013,-0.0017,0.0013,0.0011,0.001,0.0009,0,0,0.0143,0.0178,0.0182,0.0209,0.0229,0.0246,0.027,0.0281,0.0291,0.0274,0.0279,0.0261,0.0221,0.0205,0.0168,0.0149,0.0128,0.0101,0.0097,0.0069,0.0046,0.0008,-0.0001,0.0104,0.0103,0.0103,0.0008,0,0.019,0.0253,0.0257,0.0323,0.0358,0.0347,0.038,0.0383,0.0365,0.036,0.0314,0.0308,0.026,0.0251,0.022,0.0134,0.012,0.0155,0.0015,0.0011,-0.0017,-0.0006,0.0032,-0.005,0.0003,0.0002,0.0002,0,0.0237,0.0275,0.0348,0.0405,0.0419,0.0452,0.0482,0.0507,0.0484,0.0465,0.0431,0.0384,0.0333,0.0303,0.0181,0.0199,0.0138,0.0086,0.008,0.0012,-0.0035,-0.007,-0.0061,-0.0006,-0.0006,-0.0005,-0.0005,0,0.0269,0.0337,0.0397,0.0419,0.0479,0.0502,0.0531,0.0535,0.0569,0.0523,0.053,0.044,0.0417,0.0302,0.0177,0.0172,0.005,0.0022,-0.0058,-0.0063,-0.0074,-0.0079,-0.0023,-0.0023,-0.0022,-0.0022,-0.0022,0,0.0318,0.0367,0.0415,0.0451,0.0531,0.055,0.0617,0.0618,0.064,0.0694,0.0584,0.0612,0.0423,0.0329,0.0191,0.0036,0.005,-0.0049,-0.0086,-0.0044,-0.0045,-0.0042,-0.0043,-0.0026,-0.0025,-0.0024,-0.0024,0,0.0355,0.0382,0.0462,0.0528,0.055,0.061,0.0698,0.0751,0.0745,0.0805,0.0802,0.0735,0.0603,0.0407,0.0228,0.008,-0.0079,-0.0113,-0.006,-0.0088,-0.0176,-0.0172,-0.0246,-0.0249,-0.025,-0.0252,-0.0253,0,0.0381,0.0423,0.0518,0.0573,0.0607,0.0691,0.0761,0.0798,0.0869,0.0906,0.0956,0.0859,0.0815,0.0492,0.0219,-0.0061,-0.0062,-0.0197,-0.0193,-0.0169,-0.0198,-0.019,-0.0184,-0.0178,-0.0178,-0.0179,-0.0179,0,0.0444,0.0476,0.0547,0.0653,0.0733,0.083,0.0929,0.1014,0.1076,0.1131,0.1205,0.117,0.0876,0.0605,0.0208,0.0029,-0.0177,-0.0214,-0.02,-0.0126,-0.0112,-0.0137,-0.0132,-0.0183,-0.0182,-0.0182,-0.0182,-0.0182,0.0492,0.0567,0.0654,0.0751,0.0842,0.0966,0.1066,0.1181,0.1316,0.1401,0.1375,0.1307,0.0995,0.0484,0.0178,-0.0163,-0.0159,-0.0281,-0.0276,-0.0272,-0.0246,-0.0235,-0.0325,-0.0325,-0.0326,-0.0326,-0.0326,0,0.0567,0.0648,0.0747,0.0875,0.0974,0.1001,0.118,0.1281,0.1455,0.1499,0.1523,0.1216,0.0917,0.0563,0.0071,-0.023,-0.0234,-0.0325,-0.0253,-0.0248,-0.0245,-0.0214,-0.0287,-0.0288,-0.0288,-0.0288,0,0,0.0614,0.0732,0.0785,0.0954,0.1037,0.1185,0.1293,0.1429,0.151,0.1557,0.1507,0.1389,0.0993,0.0646,0.0254,-0.0008,-0.006,-0.0066,-0.007,0.0065,0.0073,-0.02,-0.0147,0,0,0,0,0]}],[{"header":{"parameterUnit":"m.s-1","parameterCategory":2,"la1":30.2991,"la2":30.254,"lo1":-89.0895,"lo2":-89.0444,"dy":0.0017,"dx":0.0017,"nx":28,"ny":28,"refTime":"2025-08-04T09:00:00:Z","depth":"4","parameterNumber":2,"parameterNumberName":"U-component_of_CURRENTS"},"data":[0,0,0,0,0,0,0,0,0,0,0,0,0,0,0,0,0,0,0,0,0,0,0,0,0,0,0,0,0,0,0,0,0,0,0,0,0,0,0,0,0,0,0,0,0,0,0,0,0,0,0,0,0,0,0,0,0,0,0.154,0.154,0,0.1514,0.1514,0.1513,0.1513,0.1514,0.1514,0.1515,0.1543,0.1543,0.1543,0,0,0,0,0,0,0,0,0,0,0,0,0,0.1471,0.1472,0.154,0.154,0.154,0.1514,0.1514,0.1513,0.1513,0.1514,0.1515,0.1515,0.1543,0.1543,0.1543,0,0,0,0,0,0,0,0,0,0,0,0,0,0.1474,0.1473,0.154,0.1541,0.1541,0.1515,0.1514,0.1512,0.1512,0.1514,0.1515,0.1516,0.1543,0.1543,0.1543,0.1519,0,0,0.1543,0.1543,0,0,0,0,0,0,0,0,0.1474,0.1476,0.1541,0.1541,0.1541,0.1523,0.15,0.1519,0.1512,0.1518,0.1515,0.1517,0.1544,0.1544,0.1528,0.152,0.1521,0.1543,0.1543,0.1543,0.1543,0,0,0,0,0,0,0,0.1474,0.1476,0.1524,0.1541,0.1541,0.1503,0.1505,0.1502,0.1521,0.1517,0.1519,0.1524,0.1544,0.1528,0.1529,0.1522,0.1543,0.1543,0.1543,0.1543,0.1598,0.16,0,0,0,0,0,0,0.1493,0.1477,0.1525,0.1524,0.1516,0.1504,0.1506,0.1523,0.152,0.1522,0.1523,0.1524,0.1527,0.1529,0.153,0.1612,0.1543,0.1543,0.1543,0.1597,0.1599,0.16,0,0,0,0,0,0,0.1491,0.1498,0.1527,0.1503,0.1505,0.1505,0.1523,0.1522,0.1532,0.1525,0.1527,0.1538,0.1528,0.153,0.1565,0.1609,0.1543,0.1543,0.1595,0.1598,0.16,0.1704,0,0,0,0,0,0,0.149,0.1497,0.1523,0.1505,0.1507,0.1524,0.1523,0.1521,0.1534,0.1536,0.1538,0.154,0.1529,0.1565,0.1565,0.1608,0.1543,0.1593,0.1596,0.1599,0.1699,0.171,0.1719,0,0,0,0,0,0.1487,0.1509,0.1524,0.1531,0.154,0.1524,0.1521,0.152,0.1534,0.1534,0.1556,0.1541,0.1582,0.1566,0.1566,0.161,0.1592,0.1595,0.1599,0.1694,0.1707,0.1719,0,0,0,0,0,0,0.1486,0.1511,0.1527,0.1557,0.1552,0.1527,0.1537,0.1534,0.1546,0.1568,0.1558,0.1561,0.1611,0.1589,0.1572,0.1632,0.1585,0.1588,0.1658,0.167,0.168,0.1679,0.1543,0,0,0,0,0,0.1502,0.1531,0.1535,0.1559,0.1567,0.1558,0.1557,0.1559,0.1564,0.157,0.158,0.1596,0.1616,0.1629,0.1637,0.1664,0.1648,0.1691,0.1701,0.171,0.1709,0.1721,0.1732,0.1611,0.1611,0.1611,0,0,0.1507,0.1526,0.1543,0.1561,0.1565,0.1573,0.156,0.1572,0.1589,0.1573,0.1618,0.1634,0.1632,0.1674,0.1693,0.1667,0.174,0.1714,0.1722,0.1715,0.1725,0.1737,0.1748,0.1613,0.1613,0.1613,0,0,0.151,0.1555,0.1573,0.1578,0.1597,0.1599,0.1611,0.1614,0.1632,0.1663,0.1675,0.1725,0.1731,0.1757,0.1764,0.1831,0.1796,0.1829,0.1879,0.1892,0.1902,0.191,0.1926,0.1935,0.1831,0.1831,0.1831,0,0.1517,0.1544,0.1569,0.1581,0.1596,0.1619,0.163,0.1647,0.1663,0.1687,0.1694,0.1754,0.1773,0.1827,0.1864,0.1858,0.1848,0.1837,0.1906,0.1914,0.1921,0.1934,0.1943,0.1837,0.1836,0.1835,0.1835,0,0.1516,0.1551,0.1563,0.1601,0.1617,0.1634,0.1666,0.1704,0.1741,0.1753,0.1822,0.1854,0.1889,0.1912,0.1913,0.1979,0.1952,0.1922,0.1877,0.1939,0.1949,0.1957,0.1844,0.1842,0.1841,0.1839,0,0,0.1497,0.1553,0.156,0.1578,0.1635,0.1637,0.1704,0.1746,0.1789,0.1834,0.1883,0.1956,0.1984,0.1995,0.2015,0.2037,0.211,0.2007,0.2005,0.2026,0.2136,0.2014,0.2009,0.2084,0.2086,0.2087,0.2131,0,0.1489,0.1511,0.1553,0.1586,0.1601,0.1664,0.1709,0.1761,0.1822,0.188,0.194,0.1999,0.201,0.2053,0.2081,0.2109,0.2129,0.21,0.2068,0.2068,0.1954,0.2013,0.2091,0.2136,0.2138,0.2139,0.214,0,0.1464,0.1489,0.1518,0.1576,0.1592,0.163,0.1722,0.1768,0.1867,0.191,0.1991,0.2037,0.2132,0.2111,0.2183,0.2161,0.2159,0.216,0.2161,0.2009,0.1957,0.2054,0.2152,0.2151,0.215,0.2149,0.2148,0,0.1401,0.1459,0.1486,0.1505,0.158,0.1628,0.1686,0.1784,0.1838,0.1956,0.2007,0.2096,0.2165,0.2182,0.2232,0.221,0.2272,0.2238,0.2118,0.211,0.216,0.215,0.2254,0.2254,0.2254,0.2254,0.2254,0,0.1355,0.1374,0.1467,0.1475,0.1523,0.1597,0.1676,0.1742,0.1857,0.1918,0.203,0.2088,0.2183,0.224,0.2247,0.2216,0.2291,0.2134,0.2112,0.2206,0.22,0.2166,0.2155,0.2256,0.2255,0.2255,0.2255,0,0.126,0.1325,0.1351,0.1448,0.1492,0.1525,0.1668,0.172,0.1837,0.193,0.1978,0.2112,0.2184,0.225,0.2297,0.2231,0.2218,0.2176,0.2296,0.2279,0.2042,0.2036,0.2045,0.2041,0.2038,0.2035,0.2033,0,0.1207,0.1213,0.1314,0.135,0.1405,0.1492,0.1557,0.1694,0.176,0.1925,0.1953,0.2082,0.2153,0.2129,0.2197,0.2196,0.2158,0.2135,0.2065,0.2042,0.2021,0.202,0.2019,0.2027,0.2026,0.2025,0.2025,0,0.1098,0.1145,0.1176,0.1263,0.1341,0.1392,0.1504,0.1544,0.1701,0.1829,0.1891,0.1936,0.2004,0.2049,0.2065,0.2055,0.2147,0.2099,0.2104,0.2039,0.2021,0.2002,0.2005,0.2013,0.2015,0.2016,0.2016,0,0.1026,0.102,0.1091,0.1163,0.1236,0.1263,0.1341,0.1433,0.1515,0.1716,0.1736,0.1861,0.1989,0.1975,0.1993,0.1981,0.1937,0.1857,0.1874,0.1888,0.1814,0.1767,0.1667,0,0,0,0,0,0.0951,0.095,0.0995,0.1051,0.1114,0.1166,0.1288,0.1378,0.1554,0.1555,0.1642,0.1701,0.1741,0.1811,0.1764,0.1904,0.1932,0.1838,0.1845,0.1948,0.1962,0.1889,0,0,0,0,0,0,0.0903,0.0926,0.0955,0.0948,0.0971,0.1027,0.1096,0.1218,0.1238,0.1422,0.146,0.1588,0.1658,0.1746,0.1726,0.1745,0.1711,0.1926,0.1921,0.1941,0.1953,0.1964,0.1893,0,0,0,0,0]},{"header":{"parameterUnit":"m.s-1","parameterCategory":2,"la1":30.2991,"la2":30.254,"lo1":-89.0895,"lo2":-89.0444,"dy":0.0017,"dx":0.0017,"nx":28,"ny":28,"refTime":"2025-08-04T09:00:00:Z","depth":"4","parameterNumber":3,"parameterNumberName":"V-component_of_CURRENTS"},"data":[0,0,0,0,0,0,0,0,0,0,0,0,0,0,0,0,0,0,0,0,0,0,0,0,0,0,0,0,0,0,0,0,0,0,0,0,0,0,0,0,0,0,0,0,0,0,0,0,0,0,0,0,0,0,0,0,0,0,-0.0026,-0.0026,0,-0.0024,-0.0023,-0.0023,-0.0035,-0.0036,-0.0036,-0.0037,-0.0039,-0.0039,-0.0038,0,0,0,0,0,0,0,0,0,0,0,0,0,-0.0001,-0.0001,-0.0026,-0.0026,-0.0026,-0.0024,-0.0023,-0.0023,-0.0035,-0.0036,-0.0037,-0.0037,-0.0039,-0.0039,-0.0038,0,0,0,0,0,0,0,0,0,0,0,0,0,-0.0005,-0.0002,-0.0026,-0.0034,-0.0034,-0.0024,-0.0023,-0.0023,-0.0035,-0.0036,-0.0037,-0.0038,-0.0039,-0.0039,-0.0038,-0.0017,0,0,-0.0036,-0.0036,0,0,0,0,0,0,0,0,-0.0004,-0.0005,-0.0032,-0.0033,-0.0034,-0.0033,-0.0016,-0.0022,-0.0035,-0.0032,-0.0037,-0.0038,-0.0038,-0.0038,-0.0032,-0.0017,-0.0017,-0.0036,-0.0035,-0.0035,-0.0035,0,0,0,0,0,0,0,-0.0004,-0.0005,-0.0023,-0.0032,-0.0033,-0.0024,-0.0025,-0.0017,-0.0029,-0.0033,-0.0034,-0.0037,-0.0038,-0.0033,-0.0032,-0.0017,-0.0036,-0.0035,-0.0035,-0.0035,-0.0031,-0.0031,0,0,0,0,0,0,-0.001,-0.0005,-0.0023,-0.0023,-0.0023,-0.0024,-0.0025,-0.003,-0.0029,-0.003,-0.0037,-0.0038,-0.0033,-0.0033,-0.0032,-0.0019,-0.0035,-0.0035,-0.0034,-0.0031,-0.0031,-0.0031,0,0,0,0,0,0,-0.001,-0.0012,-0.0023,-0.0016,-0.0017,-0.0024,-0.0029,-0.003,-0.0023,-0.0032,-0.0033,-0.0029,-0.0034,-0.0033,-0.002,-0.0019,-0.0034,-0.0034,-0.003,-0.0031,-0.0031,0.0016,0,0,0,0,0,0,-0.0009,-0.0012,-0.0013,-0.0016,-0.0017,-0.001,-0.0028,-0.0029,-0.0025,-0.0027,-0.0026,-0.0028,-0.0035,-0.002,-0.0019,-0.0018,-0.0033,-0.003,-0.0031,-0.0031,0.0015,0.0017,0.0019,0,0,0,0,0,-0.0008,-0.0003,-0.0013,-0.0015,-0.002,-0.0009,-0.0008,-0.0014,-0.0024,-0.0013,-0.0015,-0.0028,-0.0025,-0.0019,-0.0017,-0.0016,-0.003,-0.003,-0.0031,0.0014,0.0017,0.0019,0,0,0,0,0,0,0.0009,-0.0005,-0.0015,-0.0015,-0.0011,-0.0012,-0.0005,-0.0009,-0.0001,-0.0003,-0.0014,-0.0014,-0.0009,-0.0018,-0.0012,-0.0022,-0.0036,-0.0036,-0.0003,-0.0,0.0002,-0.0008,-0.0033,0,0,0,0,0,0.0011,0.0008,0.0002,0.0003,0.0004,0.0001,0.0005,0.0003,0.0006,0.0008,0.0008,-0.0002,-0.001,-0.0008,-0.0014,-0.0001,-0.0037,-0.0008,-0.0006,-0.0004,-0.0014,-0.0072,-0.0076,-0.0034,-0.0034,-0.0034,0,0,0.0016,0.0009,0.0007,0.0006,0.0006,0.0024,0.0002,0.0013,0.0026,0.0007,0.0028,0.0012,-0.0006,-0.0001,-0.0001,-0.0006,-0.0031,-0.0005,-0.0002,-0.0014,-0.0073,-0.0078,-0.0081,-0.0034,-0.0034,-0.0034,0,0,0.0037,0.0022,0.0031,0.0039,0.0042,0.0042,0.0047,0.0052,0.005,0.0068,0.0045,0.003,0.0038,0.0016,0.0006,0.0016,-0.0019,0.0012,0.0023,-0.0033,-0.0037,-0.0041,-0.0071,-0.0078,0.0016,0.0016,0.0016,0,0.0045,0.0056,0.0039,0.0059,0.0072,0.0054,0.0082,0.0079,0.0089,0.0086,0.0078,0.0052,0.0039,0.0023,0.0021,0.0021,-0.0009,0.0021,-0.003,-0.0035,-0.004,-0.007,-0.0078,0.0018,0.0018,0.0018,0.0018,0,0.0079,0.0092,0.0102,0.0117,0.013,0.0151,0.0146,0.0151,0.0143,0.0134,0.0116,0.0089,0.007,0.0057,0.0045,0.0005,-0.0003,-0.002,-0.0033,-0.0041,-0.0072,-0.0081,0.0021,0.0021,0.002,0.0019,0,0,0.0088,0.012,0.0125,0.0151,0.0165,0.0184,0.0194,0.02,0.0204,0.0182,0.0177,0.0138,0.0108,0.0091,0.0063,0.0009,-0.0044,-0.0017,-0.0021,-0.004,-0.0152,-0.0129,-0.0138,-0.007,-0.0072,-0.0073,-0.0151,0,0.0123,0.0179,0.0181,0.0238,0.027,0.026,0.0277,0.0274,0.0257,0.0247,0.0182,0.017,0.0126,0.0118,0.0054,-0.0019,-0.0071,-0.002,-0.0148,-0.0151,-0.0126,-0.015,-0.0079,-0.0158,-0.0161,-0.0162,-0.0163,0,0.0161,0.0195,0.0258,0.0308,0.032,0.0347,0.0366,0.0379,0.0343,0.0325,0.0276,0.0231,0.0158,0.0118,-0.0028,0.0008,-0.007,-0.0137,-0.0142,-0.015,-0.0148,-0.0157,-0.0182,-0.018,-0.0179,-0.0178,-0.0177,0,0.0193,0.0251,0.0306,0.0326,0.0372,0.0393,0.0414,0.0402,0.0417,0.0372,0.0367,0.0267,0.0228,0.0099,-0.0032,-0.0033,-0.0198,-0.0212,-0.0268,-0.0266,-0.0282,-0.0277,-0.0328,-0.0328,-0.0327,-0.0327,-0.0327,0,0.0236,0.0282,0.0328,0.0363,0.043,0.0442,0.0494,0.0489,0.0482,0.0498,0.0413,0.0388,0.0216,0.0109,-0.0022,-0.0169,-0.019,-0.0277,-0.0294,-0.0256,-0.0248,-0.0288,-0.0282,-0.033,-0.0329,-0.0329,-0.0328,0,0.0271,0.0297,0.037,0.0428,0.0452,0.0502,0.0566,0.0597,0.0577,0.0589,0.058,0.0474,0.0331,0.0165,-0.004,-0.0137,-0.0289,-0.0335,-0.0265,-0.0275,-0.032,-0.0311,-0.0408,-0.0408,-0.0408,-0.0408,-0.0408,0,0.0295,0.0335,0.0422,0.0468,0.0501,0.0574,0.0625,0.0645,0.0672,0.0639,0.0643,0.0522,0.0432,0.017,-0.0018,-0.0257,-0.0293,-0.036,-0.0368,-0.0326,-0.0333,-0.0324,-0.0315,-0.0408,-0.0408,-0.0408,-0.0408,0,0.0344,0.0372,0.0433,0.0524,0.0593,0.0671,0.0736,0.0763,0.0774,0.0763,0.0698,0.056,0.0401,0.0184,0.0004,-0.0173,-0.0314,-0.0362,-0.0363,-0.0372,-0.0327,-0.0333,-0.0324,-0.0408,-0.0408,-0.0408,-0.0408,0,0.0376,0.0427,0.0497,0.0578,0.0658,0.0723,0.0768,0.0796,0.0822,0.0782,0.0759,0.0582,0.0478,0.0227,0.0055,-0.0109,-0.0158,-0.021,-0.022,-0.0222,-0.015,-0.0066,-0.009,0,0,0,0,0,0.041,0.0464,0.0542,0.0627,0.0699,0.0743,0.0816,0.0846,0.086,0.0831,0.0795,0.0649,0.0392,0.0273,0.0112,0.0038,-0.0196,-0.0157,-0.0262,-0.041,-0.0409,-0.0355,0,0,0,0,0,0,0.0429,0.051,0.0547,0.0636,0.0691,0.0778,0.0824,0.0844,0.0822,0.0808,0.0674,0.0612,0.036,0.0482,0.0108,0.0056,-0.0031,-0.0277,-0.028,-0.041,-0.0409,-0.0409,-0.0354,0,0,0,0,0]}]]